Location: Unspecified
(38.9833°N, 0.0000°E)
Time: 18:22:51
(UTC+00:00)

Hubble Space Telescope - Visible Passes

Search period start: 14 August 2020 00:00
Search period end: 24 August 2020 00:00
Orbit: 536 x 540 km, 28.5° (Epoch: 14 August)

Date Brightness Start Highest point End Pass type
(mag) Time Alt. Az. Time Alt. Az. Time Alt. Az.
14 Aug 2.6 03:32:50 18° S 03:32:50 18° S 03:35:26 10° SE visible
15 Aug 2.7 03:22:46 17° SSE 03:22:46 17° SSE 03:24:42 10° SE visible
16 Aug 2.9 03:12:47 15° SSE 03:12:47 15° SSE 03:13:56 10° SE visible
17 Aug 3.3 03:02:52 11° SE 03:02:52 11° SE 03:03:07 10° SE visible
17 Aug 2.8 04:38:44 10° SW 04:40:41 13° SSW 04:42:39 10° SSE visible
18 Aug 2.9 04:28:30 10° SW 04:29:52 11° SSW 04:31:13 10° S visible
